Regional Weather Roundup
Issued by NWS

Home | Current Version | Previous Version | Text Only | Print | Product List | Glossary On
Versions: 1 2 3 4 5 6 7 8 9 10 11 12 13 14 15 16 17 18 19 20 21 22 23 24 25 26 27 28 29 30 31 32 33 34 35 36 37 38 39 40 41 42 43 44 45 46 47 48 49 50
000
ASUS44 KBMX 211910
RWRAL

ALABAMA REGIONAL WEATHER ROUNDUP
NATIONAL WEATHER SERVICE BIRMINGHAM AL
100 PM CST FRI NOV 21 2014

NOTE: "FAIR" INDICATES FEW OR NO CLOUDS BELOW 12,000 FEET
WITH NO SIGNIFICANT WEATHER AND/OR OBSTRUCTIONS TO VISIBILITY.

THE REMARK "TC" DENOTES TEMPERATURE IN DEGREES CELSIUS.

ALZ001>011-014-016>018-020-212000-
NORTH ALABAMA

CITY           SKY/WX    TMP DP  RH WIND       PRES   REMARKS
MUSCLE SHOALS  SUNNY     58  30  34 E9        30.36F
HUNTSVILLE     MOSUNNY   60  32  34 CALM      30.36F
DECATUR        SUNNY     58  33  39 VRB5      30.37F
HALEYVILLE     FAIR      61  40  45 VRB7      30.35F
GADSDEN        SUNNY     59  30  33 NE9       30.37F
$$

ALZ012-013-022-023-030>036-040>044-212000-
WEST CENTRAL ALABAMA

CITY           SKY/WX    TMP DP  RH WIND       PRES   REMARKS
TUSCALOOSA     SUNNY     67  45  45 NE3       30.32F
$$

ALZ015-024>027-033>036-040>044-212000-
CENTRAL ALABAMA

CITY           SKY/WX    TMP DP  RH WIND       PRES   REMARKS
BIRMINGHAM     SUNNY     67  35  30 E6        30.36F
MONTGOMERY     SUNNY     68  43  40 NE7       30.33F
SHELBY CO ARPT SUNNY     65  45  48 E3        30.34F
MAXWELL AFB    SUNNY     67  45  44 VRB3      30.32F
GREENVILLE     FAIR      69  42  37 SE9       30.30F
$$

ALZ019-021-028-029-037-038-045>048-212000-
EAST CENTRAL ALABAMA

CITY           SKY/WX    TMP DP  RH WIND       PRES   REMARKS
ANNISTON       SUNNY     63  37  38 E3        30.36F
ALEXANDER CITY SUNNY     68  38  33 NE5       30.34F
AUBURN         SUNNY     64  37  36 NE8       30.37F
$$

ALZ051>064-212000-
SOUTHWEST ALABAMA

CITY           SKY/WX    TMP DP  RH WIND       PRES   REMARKS
MOBILE         SUNNY     68  45  43 NE7       30.29F
BROOKLEY FIELD SUNNY     68  45  43 NE6       30.30F
EVERGREEN      MOSUNNY   70  44  39 SE8G18    30.30F
$$

ALZ049-050-065>069-212000-
SOUTHEAST ALABAMA

CITY           SKY/WX    TMP DP  RH WIND       PRES   REMARKS
DOTHAN         SUNNY     68  43  40 E9G20     30.34F
OZARK          SUNNY     69  43  39 NE12G18   30.31F
TROY           SUNNY     69  42  37 NE12      30.32F
EUFAULA        FAIR      68  44  42 VRB3      30.32F
$$


USA.gov is the U.S. government's official web portal to all federal, state and local government web resources and services.